Location: ????????
(38.4362°N, 22.8767°E)
Time: 19:13:13
(UTC+00:00)

Cosmos 921 Rocket - Pass Details

Date: 23 April 2024
Orbit: 568 x 626 km, 75.8° (Epoch: 27 May)

Event Time Altitude Azimuth Distance (km) Brightness Sun altitude
Exits shadow 01:12:27 32° 332° (NNW) 1,038 4.3 -25.9°
Drops below altitude 10° 01:15:16 10° 1° (N) 1,958 6.2 -25.5°
Sets 01:17:38 0° 9° (N) 2,876 7.3 -25.2°
